HAIYANG 1

Satellite information

Favourite Embed

Satellite Type and Status

PAYLOADIN ORBIT

Key statistics

Satellite HAIYANG 1 at a glance.

Uptime

8453

Days in orbit

Revolutions

≈ 14.3

Per day

Orbit

SSO

Sun Synchronous Orbit

Inclination

98.7

Latest

Satellite identification and parameters

Extended collection of information and parameters for HAIYANG 1.

Object identification

Identified? True

Debris? False

Object name: HAIYANG 1

International designator: 2002-024A

Object number (NORAD): 27430

Object ID (CCSDS): 27430

Country: PEOPLES REPUBLIC OF CHINA (PRC)

Current information (Y/N): Y

RCS size: LARGE

Orbital parameters

Period: 100.501 minutes

Inclination: 98.6783 deg

SMA: 7160.438 km

Apoapsis: 788.961 km

Periapsis: 775.645 km

RAAN: 141.8457 deg

Eccentricy: 0.0009298

Argument of periapsis: 25.2591 deg

Mean anomaly: 334.9046 deg

Mean motion: 14.32825781 rev/day

Mean motion (dot): 0.00000212 rev/day2

B* drag term: 0.000094259 1/REarth

Two-line elements (TLE)

Creation date: July 5, 2025, 5:45 p.m.

Reference frame: TEME

Reference center: EARTH

Epoch: July 5, 2025, 11:38 a.m. UTC

TLE line 0: 0 HAIYANG 1

TLE line 1: 1 27430U 02024A 25186.48484071 .00000212 00000-0 94259-4 0 9990

TLE line 2: 2 27430 98.6783 141.8457 0009298 25.2591 334.9046 14.32825781208179

Live tracking on map

Real-time ground track for satellite HAIYANG 1.

In-orbit conjunctions

A list of the most updated potential collisions computed for object HAIYANG 1.

Target Orbit TCA Probability of collision Miss distance Type
NOAA 16 DEB SSO 2025-05-19 23:41:56 0.0002343412 908.0 (m) DEBRIS
CZ-6A DEB SSO 2025-03-15 09:10:15 0.0002831101 898.0 (m) DEBRIS
COSMOS 2251 DEB LEO 2024-11-07 03:36:31 0.002221654 130.0 (m) DEBRIS
SHIYAN 20A DEB LEO 2024-07-03 05:41:09 0.0005538244 167.0 (m) DEBRIS

Associated space launch

HaiYang abbreviated HY, is a series of marine remote sensing satellites developed and operated by China since 2002. As of June 2020, six satellites were launched and two more are planned. Feng Yun 1D was a polar orbiting meteorological satellite.

HAIYANG 1 was lifted into orbit during the mission ‘Long March 4B | Hai Yang 1 & Feng Yun 1D’, on board a Long March 4B space rocket.

The launch took place on May 15, 2002, 1:50 a.m. from Launch Complex 7.

For more information about the launch, click the button.

Launch to space Long March 4B | Hai Yang 1 & Feng Yun 1D
Long March 4B | Hai Yang 1 & Feng Yun 1D

Agency: N/A

Status: Launch Successful

Launch date: May 15, 2002, 1:50 a.m. UTC

Rocket: Long March 4B

Launch pad: Launch Complex 7

Location: Taiyuan Satellite Launch Center, People's Republic of China

...

Latest news about this satellite

There are no fresh news available about this satellite. Check back as we update our databases every day.


Newsletter sign-up

Weekly statistics, charts and insights to help you stay on top of the space industry.